Weather History for KT65 - November, 2012

Change the Weather History Date:

Sunday, November 18, 2012

  Actual Average (KMFE) Record (KMFE)
Temperature  
Mean Temperature 64 °F 69 °F  
Max Temperature 78 °F 79 °F 91 °F (1948)
Min Temperature 51 °F 58 °F 32 °F (1896)
Degree Days  
Heating Degree Days 0 2  
Month to date heating degree days 22  
Since 1 July heating degree days 27  
Cooling Degree Days 0 6  
Month to date cooling degree days 133  
Year to date cooling degree days 4315  
Growing Degree Days 14 (Base 50)    
Moisture  
Dew Point 52 °F    
Average Humidity 65    
Maximum Humidity 94    
Minimum Humidity 39    
Precipitation  
Precipitation 0.00 in 0.03 in 1.09 in (1976)
Month to date precipitation 0.58  
Year to date precipitation 20.70  
Sea Level Pressure  
Sea Level Pressure 30.20 in    
Wind  
Wind Speed 3 mph (ESE)    
Max Wind Speed 12 mph    
Max Gust Speed 17 mph    
Visibility 10 miles    
Events      
T = Trace of Precipitation, MM = Missing Value Source: NWS Daily Summary

Daily Weather History Graph

Daily Weather History Graph

Search for Another Location

Airport or City:

Trip Planner

Search our weather history database for the weather conditions in past years. The results will help you decide how hot, cold, wet, or windy it might be!

Date:

Astronomy

Nov. 18, 2012 Rise Set
Actual Time 6:53 AM CST 5:41 PM CST
Civil Twilight 6:28 AM CST 6:05 PM CST
Nautical Twilight 6:00 AM CST 6:33 PM CST
Astronomical Twilight 5:32 AM CST 7:01 PM CST
Moon 11:26 AM CST (11/18) 10:53 PM CST (11/18)
Length of Visible Light 11h 37m
Length of Day
10h 48m
Waxing Crescent, 30% of the Moon is Illuminated
Nov 18
Waxing Crescent
Nov 20
First Quarter
Nov 28
Full
Dec 6
Last Quarter
Dec 13
New

Hourly Weather History & Observations

Time (CST) Temp. Dew Point Humidity Pressure Visibility Wind Dir Wind Speed Gust Speed Precip Events Conditions
12:15 AM 55.4 °F 50.0 °F 82% 30.26 in 10.0 mi Calm Calm - N/A   Unknown
12:35 AM 55.4 °F 50.0 °F 82% 30.25 in 10.0 mi Calm Calm - N/A   Unknown
12:55 AM 55.4 °F 51.8 °F 88% 30.24 in 10.0 mi Calm Calm - N/A   Unknown
1:15 AM 55.4 °F 50.0 °F 82% 30.24 in 10.0 mi Calm Calm - N/A   Unknown
1:35 AM 53.6 °F 50.0 °F 88% 30.23 in 10.0 mi Calm Calm - N/A   Unknown
1:55 AM 55.4 °F 50.0 °F 82% 30.23 in 10.0 mi Calm Calm - N/A   Unknown
2:15 AM 53.6 °F 50.0 °F 88% 30.23 in 10.0 mi Calm Calm - N/A   Unknown
2:35 AM 55.4 °F 50.0 °F 82% 30.22 in 10.0 mi Calm Calm - N/A   Unknown
2:55 AM 53.6 °F 50.0 °F 88% 30.22 in 10.0 mi Calm Calm - N/A   Unknown
3:15 AM 53.6 °F 50.0 °F 88% 30.22 in 10.0 mi Calm Calm - N/A   Unknown
3:35 AM 53.6 °F 50.0 °F 88% 30.22 in 10.0 mi Calm Calm - N/A   Unknown
3:55 AM 53.6 °F 50.0 °F 88% 30.21 in 10.0 mi Calm Calm - N/A   Unknown
4:15 AM 53.6 °F 50.0 °F 88% 30.21 in 10.0 mi Calm Calm - N/A   Unknown
4:35 AM 53.6 °F 50.0 °F 88% 30.21 in 10.0 mi Calm Calm - N/A   Unknown
4:55 AM 53.6 °F 50.0 °F 88% 30.21 in 10.0 mi Calm Calm - N/A   Unknown
5:15 AM 51.8 °F 50.0 °F 94% 30.21 in 10.0 mi Calm Calm - N/A   Unknown
5:35 AM 53.6 °F 50.0 °F 88% 30.21 in 10.0 mi NNW 3.5 mph - N/A   Unknown
5:55 AM 53.6 °F 50.0 °F 88% 30.22 in 10.0 mi Calm Calm - N/A   Unknown
6:15 AM 53.6 °F 50.0 °F 88% 30.21 in 10.0 mi Calm Calm - N/A   Unknown
6:35 AM 53.6 °F 50.0 °F 88% 30.22 in 10.0 mi Calm Calm - N/A   Unknown
6:55 AM 51.8 °F 50.0 °F 94% 30.22 in 10.0 mi Calm Calm - N/A   Unknown
7:15 AM 53.6 °F 50.0 °F 88% 30.22 in 10.0 mi Calm Calm - N/A   Unknown
7:35 AM 53.6 °F 50.0 °F 88% 30.22 in 10.0 mi Calm Calm - N/A   Unknown
7:55 AM 57.2 °F 51.8 °F 82% 30.23 in 10.0 mi Calm Calm - N/A   Unknown
8:15 AM 59.0 °F 51.8 °F 77% 30.23 in 10.0 mi Calm Calm - N/A   Unknown
8:35 AM 64.4 °F 53.6 °F 68% 30.23 in 10.0 mi ENE 4.6 mph - N/A   Unknown
8:55 AM 66.2 °F 55.4 °F 68% 30.23 in 10.0 mi East 4.6 mph - N/A   Unknown
9:15 AM 69.8 °F 53.6 °F 56% 30.24 in 10.0 mi ESE 8.1 mph - N/A   Unknown
9:35 AM 71.6 °F 53.6 °F 53% 30.24 in 10.0 mi ESE 10.4 mph - N/A   Unknown
9:55 AM 73.4 °F 53.6 °F 50% 30.24 in 10.0 mi ESE 10.4 mph - N/A   Unknown
10:15 AM 73.4 °F 51.8 °F 47% 30.24 in 10.0 mi ESE 9.2 mph - N/A   Unknown
10:35 AM 73.4 °F 51.8 °F 47% 30.25 in 10.0 mi ESE 10.4 mph - N/A   Unknown
10:55 AM 73.4 °F 51.8 °F 47% 30.24 in 10.0 mi SE 8.1 mph - N/A   Unknown
11:15 AM 75.2 °F 51.8 °F 44% 30.23 in 10.0 mi SE 8.1 mph - N/A   Unknown
11:35 AM 75.2 °F 51.8 °F 44% 30.22 in 10.0 mi SE 11.5 mph 16.1 mph N/A   Unknown
11:55 AM 77.0 °F 51.8 °F 41% 30.21 in 10.0 mi SE 8.1 mph - N/A   Unknown
12:15 PM 77.0 °F 51.8 °F 41% 30.20 in 10.0 mi East 8.1 mph - N/A   Unknown
12:35 PM 77.0 °F 51.8 °F 41% 30.19 in 10.0 mi SE 8.1 mph - N/A   Unknown
12:55 PM 77.0 °F 51.8 °F 41% 30.18 in 10.0 mi SE 6.9 mph - N/A   Unknown
1:15 PM 77.0 °F 51.8 °F 41% 30.17 in 10.0 mi ESE 8.1 mph - N/A   Unknown
1:35 PM 78.8 °F 51.8 °F 39% 30.16 in 10.0 mi SE 11.5 mph - N/A   Unknown
1:55 PM 77.0 °F 51.8 °F 41% 30.15 in 10.0 mi East 11.5 mph - N/A   Unknown
2:15 PM 77.0 °F 51.8 °F 41% 30.15 in 10.0 mi ESE 5.8 mph - N/A   Unknown
2:35 PM 77.0 °F 51.8 °F 41% 30.15 in 10.0 mi ESE 8.1 mph - N/A   Unknown
2:55 PM 77.0 °F 53.6 °F 44% 30.15 in 10.0 mi ESE 11.5 mph - N/A   Unknown
3:15 PM 77.0 °F 53.6 °F 44% 30.15 in 10.0 mi ESE 11.5 mph - N/A   Unknown
3:35 PM 78.8 °F 53.6 °F 42% 30.15 in 10.0 mi ESE 11.5 mph - N/A   Unknown
3:55 PM 75.2 °F 53.6 °F 47% 30.14 in 10.0 mi East 9.2 mph 17.3 mph N/A   Unknown
4:15 PM 75.2 °F 53.6 °F 47% 30.15 in 10.0 mi ESE 9.2 mph - N/A   Unknown
4:35 PM 75.2 °F 51.8 °F 44% 30.15 in 10.0 mi ESE 11.5 mph - N/A   Unknown
4:55 PM 73.4 °F 51.8 °F 47% 30.16 in 10.0 mi ESE 10.4 mph - N/A   Unknown
5:15 PM 73.4 °F 51.8 °F 47% 30.17 in 10.0 mi ESE 9.2 mph - N/A   Unknown
5:35 PM 73.4 °F 51.8 °F 47% 30.17 in 10.0 mi ESE 6.9 mph - N/A   Unknown
5:55 PM 71.6 °F 51.8 °F 50% 30.18 in 10.0 mi ESE 6.9 mph - N/A   Unknown
6:15 PM 71.6 °F 51.8 °F 50% 30.18 in 10.0 mi ESE 6.9 mph - N/A   Unknown
6:35 PM 69.8 °F 51.8 °F 53% 30.18 in 10.0 mi ESE 6.9 mph - N/A   Unknown
6:55 PM 69.8 °F 51.8 °F 53% 30.20 in 10.0 mi ESE 3.5 mph - N/A   Unknown
7:15 PM 68.0 °F 51.8 °F 56% 30.19 in 10.0 mi ESE 5.8 mph - N/A   Unknown
7:35 PM 68.0 °F 51.8 °F 56% 30.21 in 10.0 mi ESE 3.5 mph - N/A   Unknown
7:55 PM 68.0 °F 51.8 °F 56% 30.21 in 10.0 mi East 3.5 mph - N/A   Unknown
8:15 PM 66.2 °F 53.6 °F 64% 30.21 in 10.0 mi ESE 3.5 mph - N/A   Unknown
8:35 PM 64.4 °F 53.6 °F 68% 30.21 in 10.0 mi Calm Calm - N/A   Unknown
8:55 PM 64.4 °F 53.6 °F 68% 30.22 in 10.0 mi Calm Calm - N/A   Unknown
9:15 PM 64.4 °F 53.6 °F 68% 30.22 in 10.0 mi Calm Calm - N/A   Unknown
9:35 PM 64.4 °F 53.6 °F 68% 30.21 in 10.0 mi East 3.5 mph - N/A   Unknown
9:55 PM 64.4 °F 53.6 °F 68% 30.21 in 10.0 mi Calm Calm - N/A   Unknown
10:15 PM 64.4 °F 53.6 °F 68% 30.21 in 10.0 mi Calm Calm - N/A   Unknown
10:35 PM 62.6 °F 53.6 °F 72% 30.21 in 10.0 mi East 3.5 mph - N/A   Unknown
11:15 PM 62.6 °F 55.4 °F 77% 30.19 in 10.0 mi ESE 6.9 mph - N/A   Unknown
11:35 PM 62.6 °F 55.4 °F 77% 30.20 in 10.0 mi ESE 3.5 mph - N/A   Unknown
11:55 PM 64.4 °F 55.4 °F 73% 30.20 in 10.0 mi Calm Calm - N/A   Unknown